Simultaneous Nadir Overpasses (SNOs) Predictions

Prediction of SNOs over PacNW region [( 10.00, 139.50) to ( 22.70, 165.60)] between AQUA and NPP Satellites:

Table of predicted SNOs over PacNW region for the next 30.0 days since TLE Epoch: 2/23/2018
Index Date (AQUA) Time (AQUA) AQUA Lat,Lon Date (NPP) Time (NPP) NPP Lat,Lon Distance(km) Time Diff (sec)
1 02/28/2018 15:59:57 22.64, 147.51 02/28/2018 16:01:19 23.26, 144.65 300.25 82
2 03/08/2018 15:10:38 22.37, 159.81 03/08/2018 15:10:33 22.89, 157.28 266.48 5
3 03/16/2018 16:00:03 22.59, 147.51 03/16/2018 16:01:05 23.19, 144.70 296.38 62




NCC Satellite Simultaneous Nadir Overpasses (SNOs) Prediction Service
